Wind_Speed
15 15 15 15 14 15 14 14 13 13 13 12 12 12 12 12 11 11 11 11 11 11 10 9 9 10 9 9 9 9 9 9 9 9 9 8 8 7 7 7 7 7 7
16 16 15 15 15 15 15 15 14 14 14 14 13 13 13 13 13 12 12 12 12 12 11 11 10 11 11 10 10 10 10 11 11 11 10 10 9 9 8 8 8 8 8
16 16 16 16 16 16 16 16 16 15 15 15 15 15 15 14 14 14 13 13 13 13 13 12 12 12 12 12 12 11 11 11 12 12 12 12 11 11 10 10 10 9 9
17 17 17 17 17 17 17 17 17 17 16 16 16 16 16 16 15 15 15 14 14 14 14 14 14 14 14 14 13 13 12 12 12 13 13 13 13 13 12 11 11 11 10
18 18 18 18 18 18 18 18 19 18 17 17 17 17 17 18 18 17 17 16 16 15 15 16 16 15 15 15 15 15 14 14 14 13 14 14 14 14 14 13 13 13 12
19 20 20 20 19 19 19 19 20 20 19 19 19 19 19 19 20 20 19 19 18 17 17 17 17 17 17 16 16 16 16 16 15 15 15 16 16 16 15 15 15 15 14
19 21 21 21 21 20 20 21 21 21 21 21 21 21 21 21 21 21 21 21 21 20 19 19 19 19 19 19 18 18 18 18 18 17 18 18 18 18 18 17 17 17 16
21 21 22 22 23 23 22 22 22 23 24 23 23 23 24 23 23 23 23 23 23 23 22 22 21 20 21 21 21 21 21 20 20 19 19 20 20 20 20 19 19 19 18
22 22 22 23 23 23 24 24 24 24 25 25 25 25 25 26 25 25 25 25 26 26 25 25 24 23 23 23 23 23 23 23 22 21 21 21 21 22 21 21 21 21 21
23 23 23 23 23 24 24 24 24 25 26 26 26 26 27 27 27 27 27 27 27 28 28 27 27 26 26 26 25 25 26 26 25 25 24 24 24 23 24 24 23 23 23
24 24 24 24 23 23 24 24 24 25 26 27 27 27 28 28 28 29 29 29 29 29 30 30 30 29 29 29 28 28 28 28 28 27 27 26 26 26 26 26 26 25 25
25 25 25 25 25 25 25 25 26 26 26 27 27 28 28 29 29 30 30 31 31 31 32 32 32 32 31 31 31 31 31 31 30 30 30 29 29 28 28 28 28 28 28
26 26 26 26 27 27 27 28 28 28 29 28 28 29 30 30 31 31 31 32 33 33 34 34 34 34 34 34 34 34 33 33 33 32 32 31 32 32 31 31 30 30 30
27 28 28 28 28 29 29 29 30 30 30 31 30 30 31 32 32 33 34 34 34 35 35 36 36 36 36 36 36 36 36 36 35 35 34 34 34 34 34 34 33 33 33
30 30 30 29 30 30 30 31 31 32 32 32 33 33 33 34 34 35 35 36 36 36 37 37 38 38 38 39 38 38 38 38 37 37 37 37 36 36 37 37 36 36 36
32 32 32 32 32 31 32 32 33 33 34 34 35 35 35 36 36 37 37 37 38 38 39 39 39 40 40 41 41 41 41 41 40 40 39 39 39 39 39 39 39 39 39
34 34 34 34 34 34 34 34 34 35 35 36 36 37 37 38 38 38 38 38 39 39 40 41 42 42 42 43 43 43 43 43 43 42 42 42 42 42 42 42 42 41 42
35 35 36 35 35 35 36 36 36 37 37 37 38 38 39 39 39 40 40 41 41 41 42 43 43 43 44 44 44 45 45 45 45 44 44 43 43 44 44 44 44 44 44
37 37 38 37 37 37 38 38 38 38 38 39 40 40 41 41 41 42 42 43 43 43 44 44 44 45 45 45 45 46 46 47 47 47 46 46 46 46 46 47 47 47 47
39 39 39 39 39 39 40 40 40 40 41 42 42 43 43 43 43 43 43 44 44 44 44 45 45 46 47 47 46 47 47 48 49 49 49 49 49 48 48 48 49 49 50
40 40 40 40 40 40 41 41 42 42 42 43 44 44 44 44 44 44 44 45 45 45 45 46 46 47 48 49 48 49 49 49 50 51 52 51 51 51 51 52 52 52 53
41 41 41 42 42 42 42 43 43 43 44 45 45 45 45 45 45 45 46 46 46 46 46 47 47 48 49 50 50 50 50 51 51 51 52 54 54 54 54 54 54 55 55
42 42 42 42 42 43 42 43 43 44 45 46 46 46 46 46 46 46 47 47 47 47 48 48 49 49 50 51 51 52 52 52 52 52 53 54 56 56 56 56 56 57 57
42 42 42 43 43 42 42 43 43 44 46 47 48 48 48 48 48 47 47 48 48 48 49 50 50 50 51 52 53 53 54 55 55 54 55 55 56 57 57 58 58 58 58
41 42 42 43 43 43 43 44 45 46 47 47 48 49 49 49 48 48 47 48 49 49 49 50 51 52 52 53 54 55 56 56 57 57 57 57 57 57 57 58 59 59 60
41 41 42 42 43 43 44 45 46 46 47 48 48 48 49 50 50 49 49 49 49 49 50 51 52 53 54 54 55 56 56 57 57 58 59 59 58 58 58 59 60 60 61
Wind_Direction
253 250 248 246 246 247 246 245 245 244 243 243 244 244 242 241 240 239 240 240 240 240 239 240 238 237 237 235 231 228 227 227 227 229 228 227 226 229 231 232 233 234 234
253 251 250 250 248 248 247 245 246 246 245 245 244 244 244 242 242 241 241 242 243 242 241 243 242 239 239 238 235 234 233 233 233 233 232 231 229 231 235 238 240 238 238
254 251 250 250 250 250 250 248 248 248 247 247 246 247 246 245 245 243 243 245 246 244 243 246 246 243 241 240 240 239 238 237 236 234 234 233 232 234 236 239 241 240 241
254 251 251 250 251 253 252 250 249 249 247 247 247 248 248 246 245 244 245 247 248 250 249 248 247 244 243 244 244 243 241 239 238 237 236 236 237 238 238 239 240 240 242
255 253 253 252 251 251 252 250 249 250 249 248 249 249 248 248 247 246 247 248 249 250 251 249 247 246 246 247 246 244 243 241 241 241 240 240 241 241 240 241 242 241 242
255 253 254 253 252 252 251 251 249 249 250 250 251 251 250 250 250 249 248 248 249 250 251 250 249 249 248 248 248 246 245 244 244 244 244 244 244 243 243 244 244 243 244
255 253 254 254 254 254 253 251 252 251 252 253 253 252 253 253 252 251 249 249 249 250 251 251 250 250 250 250 250 250 250 250 250 248 247 248 247 246 245 246 246 246 246
255 255 255 254 256 257 257 255 253 253 254 254 255 254 254 255 254 253 252 251 251 251 252 252 252 251 251 251 251 251 251 252 252 252 251 251 251 249 248 248 248 249 249
255 256 255 255 256 257 257 257 254 253 254 254 254 254 254 255 255 255 255 253 252 252 252 253 254 253 252 252 252 251 251 251 252 252 252 252 252 251 250 250 250 250 250
256 256 255 257 257 257 258 257 255 253 254 255 255 255 255 255 255 256 256 255 254 253 253 254 254 254 253 252 252 252 252 252 253 253 253 253 253 253 253 253 252 251 250
258 256 255 257 257 257 258 258 259 257 256 257 256 256 257 257 257 258 258 257 256 255 254 254 254 255 254 253 253 254 254 253 254 254 254 254 254 255 255 254 253 252 251
258 257 257 257 258 258 260 260 260 260 260 261 259 258 258 259 259 259 259 259 259 257 256 255 255 255 255 255 255 255 255 254 254 255 255 254 254 255 255 255 255 254 253
258 258 257 257 258 259 260 261 261 261 261 262 262 261 261 261 260 260 260 260 259 258 257 256 255 255 255 255 255 255 255 254 254 255 255 255 255 255 255 255 256 255 254
260 260 259 259 259 259 261 261 261 262 262 263 263 263 263 264 264 262 261 261 259 258 257 257 256 256 256 256 256 256 255 255 255 255 256 256 256 255 255 256 256 256 255
261 261 261 261 260 260 261 262 262 262 263 264 264 265 265 265 265 264 263 261 261 260 259 257 257 257 257 257 256 256 257 257 257 257 256 256 257 257 256 256 256 257 256
261 261 262 261 260 261 261 262 263 263 264 265 266 266 266 267 267 266 265 263 262 261 260 259 258 258 257 257 257 257 257 257 257 257 257 257 257 257 257 257 257 258 257
262 262 262 262 262 261 261 262 262 263 264 266 267 267 268 268 268 266 265 265 264 263 262 260 260 260 259 258 258 258 258 258 257 258 257 257 258 258 258 257 257 258 258
262 262 263 263 263 263 263 263 262 263 264 266 267 268 269 269 268 267 267 266 265 264 263 261 260 260 259 258 258 259 258 258 258 258 258 258 258 258 259 258 258 258 258
263 263 264 264 264 263 263 263 263 265 265 266 267 268 269 269 269 269 268 267 266 265 264 262 261 260 260 259 259 259 259 258 258 259 259 258 258 258 258 258 259 258 258
265 264 265 265 265 263 262 262 264 265 266 267 269 269 269 269 270 270 270 268 267 266 265 263 262 261 260 259 261 260 260 259 259 259 259 258 258 258 258 259 259 259 259
265 266 265 266 265 263 262 263 265 265 266 267 269 269 270 270 269 269 270 270 269 267 265 264 263 262 260 260 261 261 261 260 261 261 260 259 259 259 260 260 260 260 260
266 266 266 266 266 266 265 264 264 265 266 267 268 268 269 269 269 269 269 269 269 268 265 264 264 263 262 262 262 261 261 261 261 260 261 261 260 261 261 262 262 261 261
266 266 265 265 266 266 266 265 265 265 265 266 267 268 268 269 269 270 269 269 269 268 266 265 265 265 263 263 263 262 262 261 260 260 261 261 262 262 262 263 263 263 262
265 265 265 265 265 265 265 265 265 266 266 266 267 267 267 268 268 270 269 269 268 268 267 266 266 266 265 264 263 263 263 262 261 260 261 262 262 262 263 263 264 263 263
264 264 264 265 263 263 264 264 265 267 267 267 268 268 268 268 269 270 270 269 269 269 268 268 268 267 267 266 265 265 264 264 263 262 262 262 262 262 263 263 264 263 263
265 265 265 265 264 264 264 265 266 267 268 268 269 269 270 270 270 271 272 272 271 271 270 269 270 269 268 267 267 266 266 265 264 263 263 263 263 263 263 264 264 264 263
Height
5824 5824 5825 5825 5826 5826 5826 5827 5827 5828 5828 5828 5828 5829 5830 5830 5830 5831 5831 5832 5832 5832 5833 5833 5833 5834 5835 5835 5835 5836 5836 5837 5838 5838 5839 5839 5839 5840 5841 5841 5842 5842 5843
5820 5821 5822 5822 5823 5823 5824 5824 5825 5825 5825 5826 5826 5827 5827 5827 5828 5828 5829 5829 5830 5830 5831 5831 5831 5832 5832 5833 5834 5834 5835 5835 5836 5836 5837 5837 5838 5839 5839 5840 5840 5841 5841
5817 5818 5818 5819 5819 5820 5820 5821 5822 5822 5822 5823 5823 5824 5824 5825 5826 5826 5826 5827 5827 5828 5828 5829 5829 5829 5830 5831 5831 5832 5833 5833 5834 5834 5835 5835 5836 5837 5837 5838 5838 5839 5839
5814 5814 5815 5815 5816 5816 5817 5818 5818 5819 5819 5820 5820 5821 5821 5822 5822 5823 5823 5824 5824 5825 5825 5826 5827 5827 5827 5828 5829 5829 5830 5831 5832 5832 5833 5833 5834 5835 5835 5836 5836 5837 5837
5810 5810 5811 5811 5812 5813 5813 5814 5815 5815 5816 5816 5817 5818 5818 5818 5819 5820 5820 5821 5821 5822 5822 5823 5824 5824 5825 5825 5826 5826 5827 5828 5829 5830 5830 5831 5832 5832 5833 5833 5834 5835 5835
5806 5806 5807 5807 5808 5809 5809 5810 5811 5811 5812 5812 5813 5814 5814 5815 5815 5816 5817 5817 5818 5818 5819 5820 5820 5821 5821 5822 5822 5823 5824 5825 5826 5827 5827 5828 5829 5829 5830 5831 5831 5832 5833
5802 5802 5803 5803 5804 5805 5805 5806 5806 5807 5808 5808 5809 5810 5810 5811 5811 5812 5812 5813 5814 5814 5815 5816 5816 5817 5818 5818 5819 5819 5820 5821 5822 5823 5824 5825 5825 5826 5827 5827 5828 5829 5830
5797 5798 5798 5799 5799 5800 5801 5801 5802 5803 5803 5804 5805 5805 5806 5807 5807 5808 5808 5809 5809 5810 5811 5811 5812 5813 5813 5814 5815 5816 5817 5817 5818 5819 5820 5821 5821 5822 5823 5824 5825 5826 5826
5792 5793 5794 5794 5795 5795 5796 5797 5797 5798 5798 5799 5799 5800 5801 5802 5802 5803 5803 5804 5804 5805 5806 5807 5807 5808 5809 5809 5810 5811 5812 5813 5814 5814 5815 5816 5817 5818 5819 5820 5820 5821 5822
5787 5788 5788 5789 5790 5790 5791 5791 5792 5792 5793 5793 5794 5795 5795 5796 5796 5797 5798 5798 5799 5799 5800 5801 5802 5803 5803 5804 5805 5806 5807 5808 5809 5809 5810 5811 5812 5813 5814 5815 5816 5817 5818
5781 5782 5783 5784 5784 5785 5785 5786 5786 5787 5787 5788 5788 5789 5789 5790 5790 5791 5791 5792 5793 5793 5794 5795 5796 5796 5797 5798 5799 5800 5801 5802 5803 5804 5805 5806 5807 5808 5809 5810 5811 5812 5812
5776 5776 5777 5778 5779 5779 5780 5780 5780 5781 5781 5782 5782 5783 5783 5783 5784 5784 5785 5785 5786 5786 5787 5788 5789 5790 5791 5792 5793 5794 5795 5796 5797 5798 5799 5800 5801 5802 5803 5804 5805 5806 5807
5770 5770 5771 5772 5773 5773 5774 5774 5774 5775 5775 5775 5776 5776 5776 5776 5777 5777 5777 5778 5778 5778 5779 5780 5781 5782 5783 5784 5785 5786 5787 5788 5790 5791 5792 5793 5794 5795 5796 5797 5798 5799 5800
5763 5764 5765 5765 5766 5767 5767 5767 5767 5768 5768 5768 5769 5769 5769 5769 5769 5769 5769 5769 5770 5770 5771 5771 5773 5774 5775 5776 5777 5778 5779 5780 5782 5783 5784 5785 5787 5788 5789 5790 5791 5792 5793
5757 5757 5758 5758 5759 5759 5760 5760 5760 5760 5760 5761 5761 5761 5761 5761 5761 5761 5761 5761 5761 5761 5762 5763 5764 5765 5766 5767 5769 5770 5771 5772 5773 5774 5776 5777 5778 5780 5781 5782 5783 5784 5785
5749 5750 5750 5751 5751 5752 5752 5752 5752 5752 5752 5752 5752 5752 5752 5752 5752 5752 5752 5752 5752 5752 5753 5753 5754 5755 5756 5758 5759 5760 5761 5762 5764 5765 5767 5768 5770 5771 5772 5773 5774 5776 5777
5741 5742 5742 5742 5743 5743 5743 5744 5744 5744 5744 5743 5743 5743 5743 5742 5742 5742 5742 5742 5742 5742 5743 5743 5744 5745 5746 5747 5749 5750 5751 5752 5754 5755 5757 5758 5760 5761 5762 5764 5765 5766 5767
5733 5733 5733 5734 5734 5734 5734 5734 5734 5734 5734 5734 5734 5733 5733 5732 5732 5732 5731 5731 5731 5731 5731 5732 5733 5734 5735 5736 5737 5739 5740 5742 5743 5745 5746 5748 5749 5751 5752 5753 5754 5755 5757
5724 5724 5724 5724 5724 5724 5725 5725 5725 5724 5724 5724 5724 5723 5723 5722 5721 5721 5721 5720 5720 5720 5720 5720 5721 5722 5723 5724 5725 5727 5728 5729 5731 5733 5735 5736 5738 5739 5741 5742 5743 5744 5746
5714 5714 5714 5714 5714 5714 5714 5714 5714 5714 5714 5713 5713 5712 5712 5711 5710 5710 5709 5709 5708 5708 5707 5708 5708 5709 5711 5712 5713 5714 5715 5717 5719 5720 5722 5724 5725 5727 5728 5730 5732 5733 5734
5703 5703 5703 5704 5703 5703 5703 5703 5703 5703 5703 5702 5701 5700 5700 5699 5699 5698 5697 5696 5696 5696 5696 5696 5696 5697 5698 5699 5700 5702 5703 5704 5705 5707 5709 5710 5712 5713 5715 5717 5718 5719 5721
5692 5692 5692 5692 5692 5692 5692 5692 5692 5691 5691 5690 5689 5688 5688 5687 5687 5686 5685 5684 5684 5683 5683 5684 5684 5684 5685 5686 5687 5688 5690 5692 5693 5694 5695 5697 5698 5699 5701 5702 5703 5705 5706
5681 5681 5681 5681 5681 5680 5680 5680 5680 5679 5679 5679 5678 5677 5676 5675 5674 5673 5673 5672 5671 5671 5671 5671 5671 5671 5672 5672 5673 5674 5675 5677 5679 5681 5681 5682 5683 5684 5685 5687 5688 5689 5690
5669 5669 5669 5669 5669 5669 5668 5668 5668 5668 5667 5667 5665 5664 5663 5663 5662 5661 5660 5659 5658 5658 5657 5657 5657 5657 5658 5658 5659 5659 5660 5661 5663 5666 5667 5667 5667 5668 5669 5670 5671 5672 5673
5657 5657 5657 5657 5657 5657 5657 5656 5656 5655 5655 5654 5653 5652 5651 5650 5649 5648 5647 5646 5645 5645 5644 5644 5643 5643 5643 5644 5644 5645 5645 5646 5647 5649 5651 5652 5652 5652 5653 5654 5654 5655 5656
5646 5646 5645 5645 5645 5645 5645 5644 5644 5643 5642 5641 5640 5639 5638 5637 5636 5635 5634 5633 5632 5631 5630 5630 5630 5629 5629 5629 5629 5629 5630 5630 5631 5632 5634 5635 5636 5636 5636 5637 5637 5638 5638